DW5225 Weather Reports


time (UTC)temp
F
wind
direction
speed
knots
gust
knots
rain 1hr
in
rain 24hr
in
rain mn
in
humidity
%
barometer
mb
20260902234559 59 0 0.0 0.0 0.00 0.00 0.00 74 1025.9
20260902233046 60 0 0.0 0.0 0.00 0.00 0.00 73 1025.8
20260902231557 60 0 0.0 0.0 0.00 0.00 0.00 72 1025.9
20260902230051 60 0 0.0 0.0 0.00 0.00 0.00 70 1025.9
20260902224549 61 0 0.0 0.0 0.00 0.00 0.00 71 1025.8
20260902223051 61 0 0.0 0.0 0.00 0.00 0.00 71 1025.9
20260902221549 61 0 0.0 0.0 0.00 0.00 0.00 71 1025.7
20260902220051 62 0 0.0 0.0 0.00 0.00 0.00 71 1025.7
20260902214542 62 0 0.0 0.0 0.00 0.00 0.00 70 1025.5
20260902213100 62 0 0.0 0.0 0.00 0.00 0.00 70 1025.3
20260902211550 62 0 0.0 0.0 0.00 0.00 0.00 70 1025.3
20260902210047 63 0 0.0 0.0 0.00 0.00 0.00 69 1025.3
20260902204550 63 0 0.0 0.0 0.00 0.00 0.00 69 1025.2
20260902203101 63 0 0.0 0.0 0.00 0.00 0.00 68 1025.1
20260902201546 63 0 0.0 0.0 0.00 0.00 0.00 69 1025.1
20260902200055 63 0 0.0 0.0 0.00 0.00 0.00 68 1025.2
20260902194547 64 0 0.0 0.0 0.00 0.00 0.00 68 1025.1
20260902193056 64 0 0.0 0.0 0.00 0.00 0.00 67 1024.9
20260902191553 65 0 0.0 0.0 0.00 0.00 0.00 67 1024.9
20260902190050 65 0 0.0 0.0 0.00 0.00 0.00 66 1024.7
20260902184549 65 0 0.0 0.0 0.00 0.00 0.00 65 1024.5
20260902183059 66 0 0.0 0.0 0.00 0.00 0.00 64 1024.2
20260902181549 67 0 0.0 0.0 0.00 0.00 0.00 64 1024.0
20260902180045 67 0 0.0 0.0 0.00 0.00 0.00 64 1023.8
20260902174554 68 0 0.0 0.0 0.00 0.00 0.00 63 1023.8
20260902173049 69 0 0.0 7.8 0.00 0.00 0.00 61 1023.3
20260902171556 70 0 0.9 7.0 0.00 0.00 0.00 59 1023.1
20260902170120 71 0 0.0 0.0 0.00 0.00 0.00 59 1023.1
20260902164550 72 0 0.0 5.2 0.00 0.00 0.00 58 1022.9
20260902163100 74 0 0.0 0.9 0.00 0.00 0.00 51 1022.7
20260902161553 74 0 0.0 4.3 0.00 0.00 0.00 46 1022.7
20260902160049 74 0 0.0 5.2 0.00 0.00 0.00 51 1022.7
20260902154546 76 306 0.0 3.5 0.00 0.00 0.00 50 1022.6
20260902153059 76 0 0.0 7.0 0.00 0.00 0.00 47 1022.5
20260902151555 76 300 2.6 6.1 0.00 0.00 0.00 45 1022.5
20260902150049 77 0 0.0 6.1 0.00 0.00 0.00 37 1022.5
20260902144547 76 0 1.7 6.1 0.00 0.00 0.00 45 1022.6
20260902143048 76 0 0.0 5.2 0.00 0.00 0.00 43 1022.7
20260902141548 76 309 0.0 5.2 0.00 0.00 0.00 43 1022.7
20260902140044 76 0 0.0 7.0 0.00 0.00 0.00 40 1022.7
20260902134550 75 0 0.0 7.0 0.00 0.00 0.00 41 1022.9
20260902133048 76 275 0.0 6.1 0.00 0.00 0.00 44 1022.9
20260902131557 75 336 1.7 7.8 0.00 0.00 0.00 45 1023.1
20260902130055 75 304 3.5 7.0 0.00 0.00 0.00 49 1023.1
20260902124548 75 247 1.7 6.1 0.00 0.00 0.00 41 1023.1
20260902123104 74 0 0.0 6.1 0.00 0.00 0.00 46 1023.2
20260902121554 73 0 0.9 7.0 0.00 0.00 0.00 48 1023.4
20260902114545 72 275 0.9 7.0 0.00 0.00 0.00 58 1023.7
20260902113043 70 274 1.7 6.1 0.00 0.00 0.00 59 1023.7
20260902111558 69 270 0.9 7.0 0.00 0.00 0.00 64 1023.7
20260902110048 68 267 0.9 5.2 0.00 0.00 0.00 64 1024.0
20260902104548 68 0 0.0 5.2 0.00 0.00 0.00 64 1024.1
20260902103047 68 277 0.9 6.1 0.00 0.00 0.00 66 1024.4
20260902101550 67 0 0.0 4.3 0.00 0.00 0.00 68 1024.7
20260902094552 65 0 0.0 5.2 0.00 0.00 0.00 70 1025.0
20260902093050 65 0 0.0 2.6 0.00 0.00 0.00 70 1025.2
20260902091552 64 0 0.0 0.9 0.00 0.00 0.00 71 1025.2
20260902090045 63 0 0.0 0.9 0.00 0.00 0.00 73 1025.5
20260902084550 62 0 0.0 1.7 0.00 0.00 0.00 75 1025.5
20260902083049 61 0 0.0 3.5 0.00 0.00 0.00 77 1025.5
20260902081549 61 0 0.0 0.0 0.00 0.00 0.00 76 1025.6
20260902080055 60 0 0.0 0.0 0.00 0.00 0.00 75 1025.5
20260902074554 60 0 0.0 0.0 0.00 0.00 0.00 74 1025.3
20260902073046 60 0 0.0 0.0 0.00 0.00 0.00 76 1025.4
20260902071545 59 0 0.0 0.0 0.00 0.00 0.00 79 1025.6
20260902070052 56 0 0.0 0.0 0.00 0.00 0.00 84 1025.5
20260902064552 55 0 0.0 0.0 0.00 0.00 0.00 86 1025.4
20260902063056 54 0 0.0 0.0 0.00 0.00 0.00 86 1025.5
20260902061553 54 0 0.0 0.0 0.00 0.00 0.00 85 1025.3
20260902060049 54 0 0.0 0.0 0.00 0.00 0.00 85 1025.2
20260902054548 54 0 0.0 0.0 0.00 0.00 0.00 85 1025.2
20260902053051 54 0 0.0 0.0 0.00 0.00 0.00 85 1025.1
20260902051548 53 0 0.0 0.9 0.00 0.00 0.00 86 1025.1
20260902050100 53 0 0.0 0.0 0.00 0.00 0.00 85 1025.2
20260902044544 53 0 0.0 0.0 0.00 0.00 0.00 85 1025.0
20260902043052 53 0 0.0 0.0 0.00 0.00 0.00 85 1024.9
20260902041549 53 0 0.0 0.0 0.00 0.00 0.00 85 1024.9
20260902040046 54 0 0.0 0.0 0.00 0.00 0.00 85 1024.9
20260902034546 54 0 0.0 0.0 0.00 0.00 0.00 84 1024.9
20260902033050 54 0 0.0 0.0 0.00 0.00 0.00 84 1025.0
20260902031557 54 0 0.0 0.0 0.00 0.00 0.00 83 1025.1
20260902030045 55 0 0.0 0.0 0.00 0.00 0.00 83 1025.1
20260902024556 55 0 0.0 0.0 0.00 0.00 0.00 83 1025.2
20260902023049 56 0 0.0 0.0 0.00 0.00 0.00 82 1025.2
20260902021558 56 0 0.0 0.0 0.00 0.00 0.00 82 1025.2
20260902020057 56 0 0.0 0.0 0.00 0.00 0.00 82 1025.3
20260902014548 56 0 0.0 0.0 0.00 0.00 0.00 81 1025.3
20260902013048 56 0 0.0 0.0 0.00 0.00 0.00 82 1025.3
20260902011544 56 0 0.0 0.0 0.00 0.00 0.00 81 1025.5
20260902010049 56 0 0.0 0.0 0.00 0.00 0.00 81 1025.4
20260902004550 57 0 0.0 0.0 0.00 0.00 0.00 81 1025.6
20260902003048 57 0 0.0 0.0 0.00 0.00 0.00 80 1025.6
20260902001554 57 0 0.0 0.0 0.00 0.00 0.00 80 1025.5
20260902000050 57 0 0.0 0.0 0.00 0.00 0.00 80 1025.5